Location: Linz
(48.3300°N, 14.3000°E)
Time: 05:22:14
(UTC+01:00)

YUBILEINY - Pass Details

Date: 22 February 2019
Orbit: 1479 x 1508 km, 82.5° (Epoch: 20 March)

Event Time Altitude Azimuth Distance (km) Brightness Sun altitude
Rises 05:29:57 0° 204° (SSW) 4,588 ? -15.4°
Reaches altitude 10° 05:32:54 10° 209° (SSW) 3,611 ? -14.9°
Maximum altitude 05:41:23 56° 287° (WNW) 1,718 ? -13.5°
Drops below altitude 10° 05:49:58 10° 5° (N) 3,639 ? -12.1°
Sets 05:52:58 0° 9° (N) 4,626 ? -11.6°
